Worcester, MA

4:22 AM EDT on October 22, 2017 (GMT -0400)
Worcester Regional

Weather History for KORH - August, 2013

Change the Weather History Date:

Monday, August 26, 2013

  Actual Average Record
Temperature  
Mean Temperature 69 °F 68 °F  
Max Temperature 76 °F 76 °F 98 °F (1948)
Min Temperature 61 °F 59 °F 40 °F (1942)
Degree Days  
Heating Degree Days 0 1  
Month to date heating degree days 9 17  
Since 1 June heating degree days 83 114  
Since 1 July heating degree days 16 31  
Cooling Degree Days 4 4  
Month to date cooling degree days 77 128  
Year to date cooling degree days 502 409  
Since 1 June cooling degree days 478 387  
Growing Degree Days 18 (Base 50)    
Moisture  
Dew Point 60 °F    
Average Humidity 81    
Maximum Humidity 100    
Minimum Humidity 61    
Precipitation  
Precipitation 0.13 in 0.11 in 2.55 in (1892)
Month to date precipitation 2.99 3.18  
Year to date precipitation 32.83 30.83  
Sea Level Pressure  
Sea Level Pressure 30.05 in    
Wind  
Wind Speed 12 mph (WSW)    
Max Wind Speed 23 mph    
Max Gust Speed 29 mph    
Visibility 10 miles    
Events Rain    
T = Trace of Precipitation, MM = Missing Value Source: NWS Daily Summary

Daily Weather History Graph

Daily Weather History Graph

Search for Another Location

Airport or City:

Trip Planner

Search our weather history database for the weather conditions in past years. The results will help you decide how hot, cold, wet, or windy it might be!

Date:

Astronomy

Aug. 26, 2013 Rise Set
Actual Time 6:06 AM EDT 7:31 PM EDT
Civil Twilight 5:37 AM EDT 8:00 PM EDT
Nautical Twilight 5:02 AM EDT 8:35 PM EDT
Astronomical Twilight 4:24 AM EDT 9:12 PM EDT
Moon 10:31 PM EDT (8/26) 12:13 PM EDT (8/26)
Length of Visible Light 14h 22m
Length of Day
13h 24m
Waning Gibbous, 67% of the Moon is Illuminated
Aug 26
Waning Gibbous
Aug 28
Last Quarter
Sep 5
New
Sep 12
First Quarter
Sep 19
Full

Hourly Weather History & Observations

Time (EDT) Temp. Dew Point Humidity Pressure Visibility Wind Dir Wind Speed Gust Speed Precip Events Conditions
12:54 AM 64.0 °F 55.0 °F 73% 30.21 in 10.0 mi SW 10.4 mph - N/A   Clear
1:54 AM 64.0 °F 54.0 °F 70% 30.19 in 10.0 mi WSW 10.4 mph - N/A   Clear
2:54 AM 64.0 °F 54.0 °F 70% 30.18 in 10.0 mi West 9.2 mph - N/A   Clear
3:54 AM 62.1 °F 55.0 °F 78% 30.17 in 10.0 mi WSW 8.1 mph - 0.00 in Rain Light Rain
4:54 AM 62.1 °F 55.9 °F 80% 30.15 in 10.0 mi WSW 9.2 mph - 0.00 in   Mostly Cloudy
5:54 AM 62.1 °F 55.0 °F 78% 30.14 in 10.0 mi WSW 9.2 mph - 0.00 in Rain Light Rain
6:54 AM 63.0 °F 55.9 °F 78% 30.12 in 10.0 mi WSW 8.1 mph - 0.00 in Rain Light Rain
7:54 AM 63.0 °F 55.9 °F 78% 30.12 in 10.0 mi WSW 9.2 mph - 0.00 in   Overcast
8:54 AM 64.9 °F 57.0 °F 75% 30.11 in 10.0 mi WSW 10.4 mph - N/A   Mostly Cloudy
9:54 AM 68.0 °F 57.9 °F 70% 30.08 in 10.0 mi WSW 13.8 mph - N/A   Mostly Cloudy
10:54 AM 73.0 °F 59.0 °F 61% 30.05 in 10.0 mi West 20.7 mph 28.8 mph N/A   Clear
1:54 PM 73.0 °F 60.1 °F 64% 30.00 in 10.0 mi West 11.5 mph - N/A   Mostly Cloudy
2:54 PM 73.0 °F 62.1 °F 68% 29.99 in 10.0 mi West 8.1 mph - N/A   Overcast
3:54 PM 75.0 °F 63.0 °F 66% 29.96 in 10.0 mi WSW 13.8 mph - N/A   Mostly Cloudy
4:54 PM 75.0 °F 64.0 °F 69% 29.96 in 10.0 mi WSW 15.0 mph - N/A   Clear
5:54 PM 73.0 °F 63.0 °F 71% 29.96 in 10.0 mi West 10.4 mph - N/A   Clear
6:54 PM 71.1 °F 64.0 °F 78% 29.94 in 10.0 mi WSW 11.5 mph - N/A   Mostly Cloudy
7:54 PM 70.0 °F 64.0 °F 81% 29.94 in 10.0 mi West 13.8 mph - N/A   Overcast
8:54 PM 69.1 °F 64.0 °F 84% 29.94 in 10.0 mi WSW 9.2 mph - N/A   Mostly Cloudy
9:54 PM 68.0 °F 64.0 °F 87% 29.94 in 10.0 mi WSW 10.4 mph - N/A   Overcast
10:54 PM 66.9 °F 64.9 °F 93% 29.93 in 10.0 mi West 13.8 mph - 0.00 in Rain Light Rain
11:54 PM 66.9 °F 66.0 °F 97% 29.91 in 4.0 mi WSW 12.7 mph - 0.11 in Rain Rain